^^
Your Local Weather - Clay, NY Station Historical Data
Daily Summary for March 08, 2018 Units:  Metric    English   Both
« Previous Day
Next Day »
Daily Weekly Monthly Yearly Custom
  High: Low: Average:
Temperature: 1.7 °C -2.9 °C -0.7 °C
Dew Point: -1.4 °C -8.1 °C -5.1 °C
Humidity: 91% 52% 73%
Wind Speed: 8km/h 0km/h 3.4km/h
Wind Gust: 16.1km/h - -
Wind- - West
Pressure: 1007.3 hPa 1003.3 hPa -
Precipitation: 0 mm    
Historical Graphs
 
 
Tabular Data for March 08, 2018
Time Temperature Dew Point Pressure Wind Wind Speed Wind Gust Humidity Rainfall Rate (Hourly) solar
00:00 -0.2 °C -1.9 °C 1007 hPa East 1.6 km/h 1.6 km/h 88% 0 mm 0 W/m2
00:06 -0.2 °C -1.8 °C 1007.3 hPa East 1.6 km/h 1.6 km/h 89% 0 mm 0 W/m2
00:12 -0.2 °C -1.8 °C 1007 hPa Calm     89% 0 mm 0 W/m2
00:18 -0.2 °C -1.8 °C 1007 hPa Calm     89% 0 mm 0 W/m2
00:24 -0.2 °C -1.8 °C 1007 hPa Calm     89% 0 mm 0 W/m2
00:30 -0.3 °C -1.9 °C 1007 hPa Calm     89% 0 mm 0 W/m2
00:36 -0.3 °C -1.9 °C 1007 hPa Calm     89% 0 mm 0 W/m2
00:42 -0.3 °C -1.9 °C 1007 hPa Calm     89% 0 mm 0 W/m2
00:48 -0.3 °C -1.9 °C 1007 hPa Calm     89% 0 mm 0 W/m2
00:54 -0.3 °C -1.9 °C 1007 hPa Calm     89% 0 mm 0 W/m2
01:00 -0.3 °C -1.9 °C 1007 hPa Calm     89% 0 mm 0 W/m2
01:06 -0.3 °C -1.9 °C 1007 hPa Calm     89% 0 mm 0 W/m2
01:12 -0.3 °C -1.9 °C 1007 hPa Calm     89% 0 mm 0 W/m2
01:18 -0.3 °C -1.7 °C 1007 hPa Calm     90% 0 mm 0 W/m2
01:24 -0.3 °C -1.7 °C 1007 hPa Calm     90% 0 mm 0 W/m2
01:30 -0.3 °C -1.7 °C 1007 hPa Calm     90% 0 mm 0 W/m2
01:36 -0.3 °C -1.8 °C 1007 hPa Calm     90% 0 mm 0 W/m2
01:42 -0.3 °C -1.8 °C 1006.7 hPa Calm     90% 0 mm 0 W/m2
01:48 -0.3 °C -1.8 °C 1006.7 hPa Calm     90% 0 mm 0 W/m2
01:54 -0.4 °C -1.8 °C 1006.7 hPa Calm     90% 0 mm 0 W/m2
02:00 -0.4 °C -1.8 °C 1006.7 hPa Calm     90% 0 mm 0 W/m2
02:06 -0.4 °C -1.8 °C 1006.7 hPa Calm     90% 0 mm 0 W/m2
02:12 -0.4 °C -1.8 °C 1006.7 hPa Calm     90% 0 mm 0 W/m2
02:18 -0.4 °C -1.8 °C 1006.7 hPa Calm     90% 0 mm 0 W/m2
02:24 -0.4 °C -1.9 °C 1006.7 hPa Calm     90% 0 mm 0 W/m2
02:30 -0.4 °C -1.7 °C 1006.7 hPa Calm     91% 0 mm 0 W/m2
02:36 -0.4 °C -1.7 °C 1006.3 hPa Calm     91% 0 mm 0 W/m2
02:42 -0.4 °C -1.7 °C 1006.3 hPa Calm     91% 0 mm 0 W/m2
02:48 -0.4 °C -1.7 °C 1006.3 hPa Calm     91% 0 mm 0 W/m2
02:54 -0.4 °C -1.7 °C 1006.3 hPa Calm     91% 0 mm 0 W/m2
03:00 -0.4 °C -1.7 °C 1006 hPa Calm     91% 0 mm 0 W/m2
03:06 -0.4 °C -1.7 °C 1006 hPa Calm     91% 0 mm 0 W/m2
03:12 -0.3 °C -1.6 °C 1006 hPa Calm     91% 0 mm 0 W/m2
03:18 -0.3 °C -1.6 °C 1006 hPa Calm     91% 0 mm 0 W/m2
03:24 -0.3 °C -1.6 °C 1006 hPa Calm   1.6 km/h 91% 0 mm 0 W/m2
03:30 -0.3 °C -1.6 °C 1006 hPa NW 1.6 km/h 4.8 km/h 91% 0 mm 0 W/m2
03:36 -0.2 °C -1.5 °C 1006.3 hPa West 3.2 km/h 4.8 km/h 91% 0 mm 0 W/m2
03:42 -0.2 °C -1.4 °C 1006.3 hPa West 3.2 km/h 6.4 km/h 91% 0 mm 0 W/m2
03:48 -0.2 °C -1.4 °C 1006.3 hPa WNW 3.2 km/h 6.4 km/h 91% 0 mm 0 W/m2
03:54 -0.2 °C -1.4 °C 1006.3 hPa WNW 3.2 km/h 3.2 km/h 91% 0 mm 0 W/m2
04:00 -0.1 °C -1.6 °C 1006.3 hPa WNW 3.2 km/h 4.8 km/h 90% 0 mm 0 W/m2
04:06 -0.1 °C -1.7 °C 1006.3 hPa WNW 3.2 km/h 4.8 km/h 89% 0 mm 0 W/m2
04:12 -0.1 °C -1.7 °C 1006.3 hPa WNW 3.2 km/h 4.8 km/h 89% 0 mm 0 W/m2
04:18 -0.1 °C -1.8 °C 1006 hPa WSW 3.2 km/h 8 km/h 88% 0 mm 0 W/m2
04:24 -0.1 °C -1.9 °C 1006.3 hPa WSW 3.2 km/h 3.2 km/h 87% 0 mm 0 W/m2
04:30 -0.1 °C -2.1 °C 1006.3 hPa WSW 3.2 km/h 4.8 km/h 86% 0 mm 0 W/m2
04:36 -0.1 °C -2.1 °C 1006.3 hPa WSW 3.2 km/h 8 km/h 86% 0 mm 0 W/m2
04:42 -0.1 °C -2.3 °C 1006.3 hPa West 3.2 km/h 3.2 km/h 85% 0 mm 0 W/m2
04:48 -0.1 °C -2.3 °C 1006.3 hPa West 3.2 km/h 9.7 km/h 85% 0 mm 0 W/m2
04:54 -0.1 °C -2.3 °C 1006.3 hPa West 3.2 km/h 6.4 km/h 85% 0 mm 0 W/m2
05:00 -0.1 °C -2.5 °C 1006.3 hPa WNW 3.2 km/h 3.2 km/h 84% 0 mm 0 W/m2
05:06 -0.1 °C -2.5 °C 1006.3 hPa WNW 3.2 km/h 4.8 km/h 84% 0 mm 0 W/m2
05:12 -0.1 °C -2.7 °C 1006.7 hPa West 3.2 km/h 4.8 km/h 83% 0 mm 0 W/m2
05:18 -0.1 °C -2.8 °C 1006.7 hPa West 3.2 km/h 4.8 km/h 82% 0 mm 0 W/m2
05:24 -0.1 °C -3 °C 1006.7 hPa WNW 4.8 km/h 6.4 km/h 81% 0 mm 0 W/m2
05:30 -0.2 °C -3.2 °C 1006.7 hPa NW 4.8 km/h 6.4 km/h 80% 0 mm 0 W/m2
05:36 -0.2 °C -3.2 °C 1006.7 hPa WNW 4.8 km/h 6.4 km/h 80% 0 mm 0 W/m2
05:42 -0.2 °C -3.2 °C 1006.7 hPa WNW 3.2 km/h 4.8 km/h 80% 0 mm 0 W/m2
05:48 -0.2 °C -3.4 °C 1006.7 hPa West 3.2 km/h 4.8 km/h 79% 0 mm 0 W/m2
05:54 -0.2 °C -3.4 °C 1006.7 hPa WNW 3.2 km/h 8 km/h 79% 0 mm 0 W/m2
06:00 -0.3 °C -3.5 °C 1006.7 hPa WSW 3.2 km/h 4.8 km/h 79% 0 mm 0 W/m2
06:06 -0.3 °C -3.6 °C 1006.7 hPa West 4.8 km/h 6.4 km/h 79% 0 mm 0 W/m2
06:12 -0.4 °C -3.6 °C 1006.7 hPa West 3.2 km/h 4.8 km/h 79% 0 mm 0 W/m2
06:18 -0.4 °C -3.6 °C 1007 hPa West 3.2 km/h 4.8 km/h 79% 0 mm 0 W/m2
06:24 -0.4 °C -3.7 °C 1007 hPa WNW 4.8 km/h 8 km/h 79% 0 mm 0 W/m2
06:30 -0.5 °C -3.7 °C 1007 hPa West 3.2 km/h 6.4 km/h 79% 0 mm 0 W/m2
06:36 -0.6 °C -3.8 °C 1007 hPa WSW 4.8 km/h 6.4 km/h 79% 0 mm 0 W/m2
06:42 -0.6 °C -3.8 °C 1007 hPa WSW 3.2 km/h 6.4 km/h 79% 0 mm 0 W/m2
06:48 -0.6 °C -3.6 °C 1007 hPa WSW 4.8 km/h 6.4 km/h 80% 0 mm 5 W/m2
06:54 -0.7 °C -3.7 °C 1007 hPa West 3.2 km/h 4.8 km/h 80% 0 mm 9 W/m2
07:00 -0.7 °C -3.7 °C 1007 hPa WSW 3.2 km/h 11.3 km/h 80% 0 mm 14 W/m2
07:06 -0.8 °C -3.8 °C 1006.7 hPa West 3.2 km/h 11.3 km/h 80% 0 mm 18 W/m2
07:12 -0.9 °C -3.9 °C 1007 hPa WNW 3.2 km/h 4.8 km/h 80% 0 mm 23 W/m2
07:18 -1 °C -4 °C 1007 hPa WSW 4.8 km/h 6.4 km/h 80% 0 mm 26 W/m2
07:24 -1.1 °C -4.1 °C 1007 hPa West 4.8 km/h 4.8 km/h 80% 0 mm 28 W/m2
07:30 -1.2 °C -4 °C 1007 hPa West 3.2 km/h 3.2 km/h 81% 0 mm 28 W/m2
07:36 -1.2 °C -3.9 °C 1007 hPa West 3.2 km/h 4.8 km/h 82% 0 mm 33 W/m2
07:42 -1.3 °C -4 °C 1007 hPa WNW 3.2 km/h 3.2 km/h 82% 0 mm 40 W/m2
07:48 -1.3 °C -3.8 °C 1007 hPa WNW 3.2 km/h 4.8 km/h 83% 0 mm 46 W/m2
07:54 -1.3 °C -3.8 °C 1007 hPa WNW 1.6 km/h 3.2 km/h 83% 0 mm 53 W/m2
08:00 -1.3 °C -3.8 °C 1007 hPa WNW 1.6 km/h 3.2 km/h 83% 0 mm 60 W/m2
08:06 -1.3 °C -3.7 °C 1007 hPa WNW 3.2 km/h 4.8 km/h 84% 0 mm 72 W/m2
08:12 -1.3 °C -3.6 °C 1007 hPa WNW 1.6 km/h 3.2 km/h 84% 0 mm 81 W/m2
08:18 -1.2 °C -3.4 °C 1007 hPa Calm   4.8 km/h 85% 0 mm 90 W/m2
08:24 -1.3 °C -3.6 °C 1007 hPa SW 1.6 km/h 4.8 km/h 85% 0 mm 104 W/m2
08:30 -1.3 °C -3.5 °C 1006.7 hPa WNW 3.2 km/h 3.2 km/h 85% 0 mm 107 W/m2
08:36 -1.2 °C -3.4 °C 1007 hPa WNW 1.6 km/h 3.2 km/h 85% 0 mm 114 W/m2
08:42 -1.1 °C -3.3 °C 1007 hPa WNW 1.6 km/h 1.6 km/h 85% 0 mm 107 W/m2
08:48 -1.1 °C -3.3 °C 1007 hPa WSW 1.6 km/h 4.8 km/h 85% 0 mm 118 W/m2
08:54 -1 °C -3.5 °C 1007 hPa West 3.2 km/h 6.4 km/h 83% 0 mm 134 W/m2
09:00 -0.9 °C -3.8 °C 1007 hPa NW 4.8 km/h 4.8 km/h 81% 0 mm 127 W/m2
09:06 -0.8 °C -4 °C 1007 hPa WNW 4.8 km/h 4.8 km/h 79% 0 mm 130 W/m2
09:12 -0.7 °C -4.4 °C 1007 hPa West 4.8 km/h 9.7 km/h 76% 0 mm 139 W/m2
09:18 -0.7 °C -4.9 °C 1007 hPa WSW 4.8 km/h 11.3 km/h 73% 0 mm 190 W/m2
09:24 -0.6 °C -5.2 °C 1007 hPa SW 6.4 km/h 6.4 km/h 71% 0 mm 223 W/m2
09:30 -0.6 °C -5.6 °C 1006.7 hPa NW 6.4 km/h 6.4 km/h 69% 0 mm 258 W/m2
09:36 -0.4 °C -5.6 °C 1006.7 hPa West 6.4 km/h 6.4 km/h 68% 0 mm 269 W/m2
09:42 -0.3 °C -5.5 °C 1006.7 hPa West 6.4 km/h 8 km/h 68% 0 mm 258 W/m2
09:48 -0.3 °C -5.7 °C 1006.7 hPa West 6.4 km/h 8 km/h 67% 0 mm 237 W/m2
09:54 -0.3 °C -5.7 °C 1006.7 hPa West 6.4 km/h 9.7 km/h 67% 0 mm 267 W/m2
10:00 -0.2 °C -5.4 °C 1006.7 hPa West 6.4 km/h 11.3 km/h 68% 0 mm 281 W/m2
10:06 -0.2 °C -5.4 °C 1006.7 hPa West 6.4 km/h 11.3 km/h 68% 0 mm 309 W/m2
10:12 -0.2 °C -5.8 °C 1006.7 hPa West 6.4 km/h 12.9 km/h 66% 0 mm 390 W/m2
10:18 0.1 °C -5.9 °C 1006.7 hPa West 6.4 km/h 12.9 km/h 64% 0 mm 494 W/m2
10:24 -0.1 °C -6.1 °C 1006.7 hPa West 6.4 km/h 12.9 km/h 64% 0 mm 403 W/m2
10:30 0 °C -6.2 °C 1006.7 hPa West 8 km/h 8 km/h 63% 0 mm 431 W/m2
10:36 0 °C -6 °C 1006.7 hPa WNW 8 km/h 11.3 km/h 64% 0 mm 380 W/m2
10:42 0.2 °C -5.8 °C 1006.7 hPa NW 6.4 km/h 6.4 km/h 64% 0 mm 399 W/m2
10:48 0.1 °C -6.3 °C 1006.7 hPa WSW 6.4 km/h 8 km/h 62% 0 mm 371 W/m2
10:54 0.2 °C -6.4 °C 1006.7 hPa NW 6.4 km/h 6.4 km/h 61% 0 mm 438 W/m2
11:00 0.6 °C -6.1 °C 1006.7 hPa SW 4.8 km/h 4.8 km/h 61% 0 mm 457 W/m2
11:06 0.5 °C -6.4 °C 1006.7 hPa West 6.4 km/h 8 km/h 60% 0 mm 462 W/m2
11:12 0.4 °C -6.5 °C 1006.7 hPa West 8 km/h 12.9 km/h 60% 0 mm 504 W/m2
11:18 0.6 °C -6.5 °C 1006.7 hPa West 6.4 km/h 12.9 km/h 59% 0 mm 529 W/m2
11:24 0.8 °C -6.3 °C 1006.7 hPa West 6.4 km/h 9.7 km/h 59% 0 mm 636 W/m2
11:30 0.8 °C -6.1 °C 1006.7 hPa West 8 km/h 16.1 km/h 60% 0 mm 517 W/m2
11:36 1.2 °C -5.7 °C 1006.3 hPa West 6.4 km/h 16.1 km/h 60% 0 mm 798 W/m2
11:42 1.4 °C -5.6 °C 1006.3 hPa NW 6.4 km/h 6.4 km/h 60% 0 mm 691 W/m2
11:48 1.5 °C -5.9 °C 1006.3 hPa West 6.4 km/h 11.3 km/h 58% 0 mm 443 W/m2
11:54 1.3 °C -6.3 °C 1006 hPa West 6.4 km/h 8 km/h 57% 0 mm 889 W/m2
12:00 1.3 °C -6.6 °C 1006 hPa WSW 6.4 km/h 6.4 km/h 56% 0 mm 350 W/m2
12:06 0.9 °C -7.1 °C 1006 hPa WSW 6.4 km/h 8 km/h 55% 0 mm 271 W/m2
12:12 1.6 °C -6.4 °C 1006 hPa WNW 6.4 km/h 9.7 km/h 55% 0 mm 1037 W/m2
12:18 1.7 °C -6.9 °C 1006 hPa WNW 6.4 km/h 11.3 km/h 53% 0 mm 1037 W/m2
12:24 1.6 °C -6.2 °C 1006 hPa NNW 6.4 km/h 9.7 km/h 56% 0 mm 1037 W/m2
12:30 1.5 °C -6.8 °C 1006 hPa WNW 6.4 km/h 8 km/h 54% 0 mm 410 W/m2
12:36 1.1 °C -6.9 °C 1005.6 hPa West 6.4 km/h 8 km/h 55% 0 mm 229 W/m2
12:42 1.2 °C -7.1 °C 1005.6 hPa West 6.4 km/h 6.4 km/h 54% 0 mm 290 W/m2
12:48 0.8 °C -7.7 °C 1005.6 hPa NW 6.4 km/h 9.7 km/h 53% 0 mm 199 W/m2
12:54 0.6 °C -7.7 °C 1005.6 hPa WNW 6.4 km/h 8 km/h 54% 0 mm 264 W/m2
13:00 0.8 °C -7.2 °C 1005.6 hPa WNW 4.8 km/h 4.8 km/h 55% 0 mm 257 W/m2
13:06 0.7 °C -8.1 °C 1005.6 hPa WNW 6.4 km/h 8 km/h 52% 0 mm 246 W/m2
13:12 0.8 °C -8 °C 1005.6 hPa WNW 6.4 km/h 6.4 km/h 52% 0 mm 255 W/m2
13:18 0.8 °C -7.5 °C 1005.6 hPa WNW 4.8 km/h 9.7 km/h 54% 0 mm 257 W/m2
13:24 0.8 °C -7.7 °C 1005.6 hPa WNW 4.8 km/h 8 km/h 53% 0 mm 209 W/m2
13:30 0.7 °C -7.3 °C 1005.6 hPa WNW 6.4 km/h 6.4 km/h 55% 0 mm 174 W/m2
13:36 0.7 °C -7.3 °C 1005.6 hPa West 6.4 km/h 6.4 km/h 55% 0 mm 151 W/m2
13:42 0.4 °C -8.1 °C 1005.3 hPa WNW 6.4 km/h 6.4 km/h 53% 0 mm 167 W/m2
13:48 0.5 °C -8 °C 1005.3 hPa West 6.4 km/h 16.1 km/h 53% 0 mm 190 W/m2
13:54 0.6 °C -7.7 °C 1005.3 hPa WNW 6.4 km/h 8 km/h 54% 0 mm 246 W/m2
14:00 0.7 °C -6.6 °C 1005.3 hPa NNW 6.4 km/h 6.4 km/h 58% 0 mm 499 W/m2
14:06 0.7 °C -6.4 °C 1005.3 hPa NW 4.8 km/h 9.7 km/h 59% 0 mm 209 W/m2
14:12 0.6 °C -6.1 °C 1005.3 hPa NNW 4.8 km/h 4.8 km/h 61% 0 mm 214 W/m2
14:18 0.4 °C -6.2 °C 1005 hPa NNW 4.8 km/h 6.4 km/h 61% 0 mm 169 W/m2
14:24 0.3 °C -6.3 °C 1005 hPa WNW 6.4 km/h 11.3 km/h 61% 0 mm 116 W/m2
14:30 0.1 °C -6.6 °C 1005 hPa NW 8 km/h 9.7 km/h 61% 0 mm 128 W/m2
14:36 0.1 °C -6.6 °C 1005 hPa WNW 6.4 km/h 9.7 km/h 61% 0 mm 125 W/m2
14:42 -0.1 °C -6.5 °C 1005 hPa NNW 6.4 km/h 11.3 km/h 62% 0 mm 100 W/m2
14:48 -0.2 °C -6.6 °C 1005 hPa NNW 8 km/h 12.9 km/h 62% 0 mm 104 W/m2
14:54 -0.3 °C -6.7 °C 1005.3 hPa NW 6.4 km/h 12.9 km/h 62% 0 mm 113 W/m2
15:00 -0.3 °C -6.5 °C 1005 hPa NNW 6.4 km/h 8 km/h 63% 0 mm 127 W/m2
15:06 -0.3 °C -6.7 °C 1005 hPa NW 6.4 km/h 11.3 km/h 62% 0 mm 113 W/m2
15:12 -0.2 °C -6.4 °C 1005 hPa NNW 4.8 km/h 6.4 km/h 63% 0 mm 102 W/m2
15:18 -0.2 °C -6.4 °C 1005 hPa NW 3.2 km/h 8 km/h 63% 0 mm 102 W/m2
15:24 -0.3 °C -6.5 °C 1005.3 hPa NNW 6.4 km/h 9.7 km/h 63% 0 mm 83 W/m2
15:30 -0.3 °C -6.6 °C 1005.3 hPa NW 4.8 km/h 4.8 km/h 63% 0 mm 88 W/m2
15:36 -0.2 °C -6.4 °C 1005.3 hPa WNW 4.8 km/h 8 km/h 63% 0 mm 105 W/m2
15:42 -0.1 °C -6.3 °C 1005.3 hPa WNW 4.8 km/h 4.8 km/h 63% 0 mm 123 W/m2
15:48 -0.1 °C -6.5 °C 1005.3 hPa NW 4.8 km/h 6.4 km/h 62% 0 mm 137 W/m2
15:54 -0.1 °C -6.7 °C 1005.3 hPa NW 4.8 km/h 8 km/h 61% 0 mm 127 W/m2
16:00 -0.1 °C -7.2 °C 1005.3 hPa WNW 6.4 km/h 11.3 km/h 59% 0 mm 107 W/m2
16:06 -0.1 °C -6.9 °C 1005.6 hPa WNW 6.4 km/h 11.3 km/h 60% 0 mm 93 W/m2
16:12 -0.2 °C -6.8 °C 1005.6 hPa WNW 6.4 km/h 6.4 km/h 61% 0 mm 105 W/m2
16:18 -0.3 °C -6.9 °C 1005.3 hPa WNW 6.4 km/h 9.7 km/h 61% 0 mm 114 W/m2
16:24 -0.3 °C -6.9 °C 1005.6 hPa NW 6.4 km/h 6.4 km/h 61% 0 mm 98 W/m2
16:30 -0.3 °C -6.5 °C 1005.6 hPa NW 4.8 km/h 6.4 km/h 63% 0 mm 100 W/m2
16:36 -0.3 °C -6.7 °C 1005.6 hPa NW 4.8 km/h 6.4 km/h 62% 0 mm 105 W/m2
16:42 -0.4 °C -6.6 °C 1005.6 hPa WNW 6.4 km/h 8 km/h 63% 0 mm 91 W/m2
16:48 -0.5 °C -6.5 °C 1005.6 hPa NW 6.4 km/h 8 km/h 64% 0 mm 79 W/m2
16:54 -0.6 °C -6.6 °C 1005.6 hPa NW 4.8 km/h 6.4 km/h 64% 0 mm 63 W/m2
17:00 -0.6 °C -6.6 °C 1005.6 hPa NW 6.4 km/h 6.4 km/h 64% 0 mm 40 W/m2
17:06 -0.7 °C -6.7 °C 1006 hPa WNW 4.8 km/h 8 km/h 64% 0 mm 42 W/m2
17:12 -0.7 °C -6.5 °C 1006 hPa NW 4.8 km/h 6.4 km/h 65% 0 mm 40 W/m2
17:20 -0.7 °C -6.4 °C 1006 hPa WNW 4.8 km/h 6.4 km/h 65% 0 mm 40 W/m2
17:26 -0.7 °C -6.5 °C 1005.6 hPa WNW 4.8 km/h 8 km/h 65% 0 mm 44 W/m2
17:32 -0.8 °C -6.6 °C 1006 hPa WNW 3.2 km/h 6.4 km/h 65% 0 mm 23 W/m2
17:38 -0.9 °C -6.8 °C 1006 hPa WNW 4.8 km/h 6.4 km/h 64% 0 mm 19 W/m2
17:44 -1 °C -6.8 °C 1006 hPa WNW 4.8 km/h 9.7 km/h 65% 0 mm 12 W/m2
17:50 -1.1 °C -6.8 °C 1006 hPa WNW 4.8 km/h 4.8 km/h 65% 0 mm 11 W/m2
17:56 -1.1 °C -6.7 °C 1006 hPa WNW 4.8 km/h 6.4 km/h 66% 0 mm 9 W/m2
18:02 -1.2 °C -6.6 °C 1006 hPa WNW 3.2 km/h 8 km/h 67% 0 mm 5 W/m2
18:08 -1.4 °C -6.7 °C 1006 hPa WNW 4.8 km/h 8 km/h 67% 0 mm 0 W/m2
18:14 -1.4 °C -6.6 °C 1006 hPa West 3.2 km/h 4.8 km/h 68% 0 mm 0 W/m2
18:20 -1.6 °C -6.7 °C 1006 hPa NW 1.6 km/h 1.6 km/h 68% 0 mm 0 W/m2
18:26 -1.6 °C -6.8 °C 1006 hPa West 1.6 km/h 1.6 km/h 68% 0 mm 0 W/m2
18:32 -1.7 °C -6.8 °C 1006 hPa Calm     68% 0 mm 0 W/m2
18:38 -1.7 °C -6.8 °C 1006 hPa Calm   1.6 km/h 68% 0 mm 0 W/m2
18:44 -1.8 °C -6.8 °C 1006 hPa Calm   1.6 km/h 69% 0 mm 0 W/m2
18:50 -1.9 °C -6.8 °C 1006 hPa Calm     69% 0 mm 0 W/m2
18:56 -2.1 °C -7 °C 1006 hPa Calm     69% 0 mm 0 W/m2
19:04 -2.2 °C -7.2 °C 1006 hPa Calm     69% 0 mm 0 W/m2
19:10 -2.3 °C -7.3 °C 1006 hPa Calm     69% 0 mm 0 W/m2
19:16 -2.5 °C -7.2 °C 1006 hPa Calm     70% 0 mm 0 W/m2
19:22 -2.6 °C -7.3 °C 1006 hPa Calm     70% 0 mm 0 W/m2
19:28 -2.7 °C -7.2 °C 1006 hPa Calm     71% 0 mm 0 W/m2
19:34 -2.7 °C -7.2 °C 1006 hPa Calm     71% 0 mm 0 W/m2
19:40 -2.6 °C -6.9 °C 1006 hPa Calm     72% 0 mm 0 W/m2
19:46 -2.4 °C -6.8 °C 1006 hPa Calm   1.6 km/h 72% 0 mm 0 W/m2
19:52 -2.1 °C -6.8 °C 1006 hPa NW 1.6 km/h 4.8 km/h 70% 0 mm 0 W/m2
19:58 -1.7 °C -7.1 °C 1006 hPa NW 3.2 km/h 4.8 km/h 67% 0 mm 0 W/m2
20:04 -1.6 °C -7.3 °C 1005.6 hPa NW 3.2 km/h 6.4 km/h 65% 0 mm 0 W/m2
20:10 -1.6 °C -7.5 °C 1005.6 hPa WSW 3.2 km/h 3.2 km/h 64% 0 mm 0 W/m2
20:16 -1.6 °C -7.5 °C 1005.6 hPa West 3.2 km/h 4.8 km/h 64% 0 mm 0 W/m2
20:22 -1.6 °C -7.6 °C 1005.6 hPa West 3.2 km/h 3.2 km/h 64% 0 mm 0 W/m2
20:28 -1.7 °C -7.4 °C 1005.6 hPa West 1.6 km/h 3.2 km/h 65% 0 mm 0 W/m2
20:34 -1.8 °C -7.3 °C 1005.6 hPa West 1.6 km/h 4.8 km/h 66% 0 mm 0 W/m2
20:40 -1.9 °C -7.4 °C 1005.6 hPa West 1.6 km/h 1.6 km/h 66% 0 mm 0 W/m2
20:46 -1.9 °C -7.3 °C 1005.3 hPa Calm   3.2 km/h 67% 0 mm 0 W/m2
20:52 -2.1 °C -7.2 °C 1005.3 hPa Calm   1.6 km/h 68% 0 mm 0 W/m2
20:58 -2.2 °C -7.3 °C 1005.3 hPa Calm   1.6 km/h 68% 0 mm 0 W/m2
21:04 -2.2 °C -7.1 °C 1005.3 hPa WSW 1.6 km/h 4.8 km/h 69% 0 mm 0 W/m2
21:10 -2.2 °C -6.9 °C 1005 hPa West 3.2 km/h 6.4 km/h 70% 0 mm 0 W/m2
21:16 -2.2 °C -6.8 °C 1005 hPa West 3.2 km/h 6.4 km/h 71% 0 mm 0 W/m2
21:22 -2.2 °C -6.6 °C 1005 hPa West 1.6 km/h 1.6 km/h 72% 0 mm 0 W/m2
21:28 -2.3 °C -6.7 °C 1005 hPa Calm   3.2 km/h 72% 0 mm 0 W/m2
21:34 -2.3 °C -6.5 °C 1005 hPa West 1.6 km/h 3.2 km/h 73% 0 mm 0 W/m2
21:40 -2.3 °C -6.5 °C 1005 hPa West 1.6 km/h 3.2 km/h 73% 0 mm 0 W/m2
21:46 -2.3 °C -6.5 °C 1004.6 hPa WSW 3.2 km/h 3.2 km/h 73% 0 mm 0 W/m2
21:52 -2.3 °C -6.3 °C 1004.6 hPa WSW 3.2 km/h 4.8 km/h 74% 0 mm 0 W/m2
21:58 -2.4 °C -6.4 °C 1004.6 hPa WSW 1.6 km/h 6.4 km/h 74% 0 mm 0 W/m2
22:04 -2.4 °C -6.4 °C 1004.6 hPa WSW 1.6 km/h 4.8 km/h 74% 0 mm 0 W/m2
22:10 -2.4 °C -6.3 °C 1004.6 hPa WSW 3.2 km/h 3.2 km/h 75% 0 mm 0 W/m2
22:16 -2.4 °C -6.3 °C 1004.6 hPa WSW 3.2 km/h 3.2 km/h 75% 0 mm 0 W/m2
22:22 -2.5 °C -6.2 °C 1004.6 hPa WSW 3.2 km/h 4.8 km/h 76% 0 mm 0 W/m2
22:28 -2.6 °C -6.2 °C 1004.6 hPa SW 1.6 km/h 4.8 km/h 76% 0 mm 0 W/m2
22:34 -2.6 °C -6.1 °C 1004.6 hPa WSW 3.2 km/h 3.2 km/h 77% 0 mm 0 W/m2
22:40 -2.5 °C -6 °C 1004.3 hPa SW 3.2 km/h 4.8 km/h 77% 0 mm 0 W/m2
22:46 -2.5 °C -5.8 °C 1004.3 hPa SW 1.6 km/h 4.8 km/h 78% 0 mm 0 W/m2
22:52 -2.6 °C -5.9 °C 1003.9 hPa SW 1.6 km/h 3.2 km/h 78% 0 mm 0 W/m2
22:58 -2.6 °C -5.9 °C 1003.9 hPa WSW 1.6 km/h 3.2 km/h 78% 0 mm 0 W/m2
23:04 -2.6 °C -5.8 °C 1003.9 hPa WNW 1.6 km/h 4.8 km/h 79% 0 mm 0 W/m2
23:10 -2.7 °C -5.8 °C 1003.9 hPa WSW 3.2 km/h 3.2 km/h 79% 0 mm 0 W/m2
23:16 -2.7 °C -5.8 °C 1003.6 hPa SW 3.2 km/h 3.2 km/h 79% 0 mm 0 W/m2
23:22 -2.8 °C -5.9 °C 1003.6 hPa SW 3.2 km/h 3.2 km/h 79% 0 mm 0 W/m2
23:28 -2.8 °C -5.9 °C 1003.6 hPa West 3.2 km/h 3.2 km/h 79% 0 mm 0 W/m2
23:34 -2.8 °C -5.8 °C 1003.6 hPa West 1.6 km/h 1.6 km/h 80% 0 mm 0 W/m2
23:40 -2.9 °C -5.9 °C 1003.3 hPa SW 1.6 km/h 1.6 km/h 80% 0 mm 0 W/m2
23:46 -2.9 °C -5.9 °C 1003.3 hPa West 1.6 km/h 4.8 km/h 80% 0 mm 0 W/m2
23:52 -2.9 °C -5.9 °C 1003.3 hPa West 1.6 km/h 4.8 km/h 80% 0 mm 0 W/m2
23:58 -2.9 °C -5.9 °C 1003.3 hPa West 1.6 km/h 6.4 km/h 80% 0 mm 0 W/m2
Country Meadow, Clay, NY, USA
Compliments of Weather Underground - 2 mb